TimeEDT,TemperatureF,Dew PointF,Humidity,Sea Level PressureIn,VisibilityMPH,Wind Direction,Wind SpeedMPH,Gust SpeedMPH,PrecipitationIn,Events,Conditions,WindDirDegrees,DateUTC
12:15 AM,64.4,64.4,100,30.02,0.5,NNE,4.6,-,N/A,Fog,Fog,20,2013-08-29 04:15:00
12:35 AM,64.4,64.4,100,30.02,1.0,NNE,3.5,-,N/A,,Overcast,20,2013-08-29 04:35:00
12:55 AM,64.4,64.4,100,30.02,2.0,NNE,4.6,-,N/A,,Overcast,20,2013-08-29 04:55:00
1:15 AM,64.4,64.4,100,30.03,2.5,NNE,3.5,-,N/A,,Scattered Clouds,20,2013-08-29 05:15:00
1:35 AM,64.4,64.4,100,30.03,1.8,NE,4.6,-,N/A,,Scattered Clouds,50,2013-08-29 05:35:00
1:55 AM,62.6,62.6,100,30.02,1.0,ENE,4.6,-,N/A,,Mostly Cloudy,70,2013-08-29 05:55:00
2:15 AM,62.6,62.6,100,30.02,0.2,ENE,5.8,-,N/A,Fog,Fog,70,2013-08-29 06:15:00
2:35 AM,62.6,62.6,100,30.02,1.0,NE,3.5,-,N/A,,Overcast,50,2013-08-29 06:35:00
2:55 AM,62.6,62.6,100,30.03,0.8,ENE,5.8,-,N/A,,Overcast,60,2013-08-29 06:55:00
3:15 AM,62.6,62.6,100,30.03,1.8,NE,4.6,-,N/A,,Overcast,40,2013-08-29 07:15:00
3:35 AM,62.6,62.6,100,30.03,1.5,Calm,Calm,-,N/A,,Overcast,0,2013-08-29 07:35:00
3:55 AM,62.6,62.6,100,30.04,0.2,NE,3.5,-,N/A,Fog,Fog,40,2013-08-29 07:55:00
4:15 AM,62.6,62.6,100,30.04,0.2,ENE,4.6,-,N/A,Fog,Fog,70,2013-08-29 08:15:00
4:35 AM,62.6,62.6,100,30.04,0.8,NE,6.9,-,N/A,,Overcast,50,2013-08-29 08:35:00
4:55 AM,62.6,62.6,100,30.04,0.5,NE,5.8,-,N/A,Fog,Fog,50,2013-08-29 08:55:00
5:15 AM,62.6,62.6,100,30.05,1.0,NE,4.6,-,N/A,,Overcast,50,2013-08-29 09:15:00
5:35 AM,62.6,62.6,100,30.05,0.8,ENE,4.6,-,N/A,,Overcast,60,2013-08-29 09:35:00
5:55 AM,62.6,62.6,100,30.05,0.8,NE,3.5,-,N/A,,Overcast,40,2013-08-29 09:55:00
6:15 AM,62.6,62.6,100,30.05,0.5,ENE,3.5,-,N/A,Fog,Fog,70,2013-08-29 10:15:00
6:35 AM,60.8,60.8,100,30.07,0.2,East,3.5,-,N/A,Fog,Fog,80,2013-08-29 10:35:00
6:55 AM,62.6,62.6,100,30.08,0.2,NE,3.5,-,N/A,Fog,Fog,50,2013-08-29 10:55:00
7:15 AM,62.6,62.6,100,30.08,0.2,ENE,4.6,-,N/A,Fog,Fog,70,2013-08-29 11:15:00
7:35 AM,62.6,62.6,100,30.08,0.2,ENE,4.6,-,N/A,Fog,Fog,70,2013-08-29 11:35:00
7:55 AM,62.6,62.6,100,30.09,0.2,East,4.6,-,N/A,Fog,Fog,80,2013-08-29 11:55:00
8:15 AM,62.6,62.6,100,30.10,0.2,East,5.8,-,N/A,Fog,Fog,80,2013-08-29 12:15:00
8:35 AM,62.6,62.6,100,30.10,0.2,East,3.5,-,N/A,Fog,Fog,100,2013-08-29 12:35:00
8:55 AM,64.4,64.4,100,30.11,0.2,ENE,3.5,-,N/A,Fog,Fog,70,2013-08-29 12:55:00
9:15 AM,64.4,64.4,100,30.11,0.5,East,3.5,-,N/A,Fog,Fog,90,2013-08-29 13:15:00
9:35 AM,64.4,64.4,100,30.11,4.0,Calm,Calm,-,N/A,,Overcast,0,2013-08-29 13:35:00
9:55 AM,66.2,66.2,100,30.11,7.0,Calm,Calm,-,N/A,,Scattered Clouds,0,2013-08-29 13:55:00
10:15 AM,68.0,66.2,94,30.11,10.0,ENE,4.6,-,N/A,,Scattered Clouds,60,2013-08-29 14:15:00
10:35 AM,68.0,64.4,88,30.12,10.0,NNE,4.6,-,N/A,,Scattered Clouds,30,2013-08-29 14:35:00
10:55 AM,69.8,64.4,83,30.12,10.0,ENE,5.8,-,N/A,,Scattered Clouds,60,2013-08-29 14:55:00
11:15 AM,71.6,64.4,78,30.12,10.0,NNE,6.9,-,N/A,,Clear,30,2013-08-29 15:15:00
11:35 AM,73.4,64.4,73,30.12,10.0,North,5.8,-,N/A,,Clear,10,2013-08-29 15:35:00
11:55 AM,73.4,64.4,73,30.12,10.0,East,5.8,-,N/A,,Scattered Clouds,80,2013-08-29 15:55:00
12:15 PM,73.4,64.4,73,30.12,10.0,ENE,8.1,-,N/A,,Scattered Clouds,70,2013-08-29 16:15:00
12:35 PM,75.2,64.4,69,30.12,10.0,East,6.9,-,N/A,,Clear,80,2013-08-29 16:35:00
1:15 PM,77.0,62.6,61,30.11,10.0,ENE,6.9,-,N/A,,Scattered Clouds,60,2013-08-29 17:15:00
1:55 PM,77.0,62.6,61,30.11,10.0,ENE,4.6,-,N/A,,Mostly Cloudy,70,2013-08-29 17:55:00
2:15 PM,75.2,64.4,69,30.11,10.0,East,4.6,-,N/A,,Mostly Cloudy,80,2013-08-29 18:15:00
2:35 PM,77.0,64.4,65,30.11,10.0,East,8.1,-,N/A,,Scattered Clouds,90,2013-08-29 18:35:00
2:55 PM,77.0,64.4,65,30.10,10.0,ENE,3.5,-,N/A,,Scattered Clouds,70,2013-08-29 18:55:00
3:15 PM,75.2,64.4,69,30.10,10.0,ENE,4.6,-,N/A,,Mostly Cloudy,70,2013-08-29 19:15:00
3:35 PM,78.8,64.4,61,30.10,10.0,East,5.8,-,N/A,,Scattered Clouds,80,2013-08-29 19:35:00
3:55 PM,78.8,64.4,61,30.10,10.0,ENE,5.8,-,N/A,,Scattered Clouds,60,2013-08-29 19:55:00
4:15 PM,77.0,62.6,61,30.10,10.0,NE,4.6,-,N/A,,Scattered Clouds,50,2013-08-29 20:15:00
4:35 PM,77.0,62.6,61,30.10,10.0,NE,3.5,-,N/A,,Clear,50,2013-08-29 20:35:00
4:55 PM,77.0,64.4,65,30.10,10.0,NE,8.1,-,N/A,,Clear,50,2013-08-29 20:55:00
5:15 PM,77.0,62.6,61,30.10,10.0,ENE,4.6,-,N/A,,Scattered Clouds,60,2013-08-29 21:15:00
5:35 PM,73.4,62.6,69,30.10,10.0,NE,4.6,-,N/A,,Scattered Clouds,50,2013-08-29 21:35:00
5:55 PM,73.4,62.6,69,30.10,10.0,NNE,3.5,-,N/A,,Scattered Clouds,30,2013-08-29 21:55:00
6:15 PM,73.4,64.4,73,30.10,10.0,Calm,Calm,-,N/A,,Scattered Clouds,0,2013-08-29 22:15:00
6:35 PM,73.4,64.4,73,30.10,10.0,NE,3.5,-,N/A,,Scattered Clouds,40,2013-08-29 22:35:00
6:55 PM,71.6,64.4,78,30.10,10.0,NE,3.5,-,N/A,,Clear,40,2013-08-29 22:55:00
7:15 PM,71.6,64.4,78,30.09,10.0,Calm,Calm,-,N/A,,Clear,0,2013-08-29 23:15:00
7:35 PM,71.6,64.4,78,30.09,10.0,NNE,3.5,-,N/A,,Clear,30,2013-08-29 23:35:00
7:55 PM,71.6,64.4,78,30.10,10.0,NE,3.5,-,N/A,,Clear,40,2013-08-29 23:55:00
8:15 PM,69.8,64.4,83,30.09,10.0,NE,3.5,-,N/A,,Clear,50,2013-08-30 00:15:00
8:35 PM,69.8,62.6,78,30.09,10.0,NE,4.6,-,N/A,,Clear,50,2013-08-30 00:35:00
8:55 PM,68.0,62.6,83,30.10,10.0,NE,4.6,-,N/A,,Clear,40,2013-08-30 00:55:00
9:15 PM,68.0,62.6,83,30.11,10.0,NE,3.5,-,N/A,,Clear,50,2013-08-30 01:15:00
9:35 PM,68.0,62.6,83,30.11,10.0,NNE,3.5,-,N/A,,Clear,30,2013-08-30 01:35:00
9:55 PM,66.2,62.6,88,30.11,10.0,ENE,4.6,-,N/A,,Clear,70,2013-08-30 01:55:00
10:15 PM,66.2,62.6,88,30.11,10.0,Calm,Calm,-,N/A,,Clear,0,2013-08-30 02:15:00
10:35 PM,64.4,62.6,94,30.11,10.0,Calm,Calm,-,N/A,,Clear,0,2013-08-30 02:35:00
10:55 PM,64.4,62.6,94,30.11,10.0,Calm,Calm,-,N/A,,Clear,0,2013-08-30 02:55:00
11:15 PM,64.4,62.6,94,30.11,10.0,Calm,Calm,-,N/A,,Clear,0,2013-08-30 03:15:00
11:35 PM,64.4,62.6,94,30.11,10.0,NE,3.5,-,N/A,,Clear,50,2013-08-30 03:35:00
11:55 PM,64.4,62.6,94,30.10,10.0,NE,4.6,-,N/A,,Clear,40,2013-08-30 03:55:00